Location: Glenbow
(51.1592°N, 114.3828°W)
Time: 20:33:28
(UTC+00:00)

Envisat - Pass Details

Date: 03 December 2021
Orbit: 764 x 766 km, 98.2° (Epoch: 26 January)

Event Time Altitude Azimuth Distance (km) Brightness Sun altitude
Rises 11:09:27 0° 29° (NNE) 3,246 6.7 -38.5°
Reaches altitude 10° 11:13:04 10° 56° (NE) 2,313 6.1 -38.0°
Maximum altitude 11:15:31 13° 85° (E) 2,073 5.9 -37.6°
Drops below altitude 10° 11:17:59 10° 114° (ESE) 2,304 6.0 -37.2°
Sets 11:21:33 0° 141° (SE) 3,223 6.6 -36.7°
